TimeEDT,TemperatureF,Dew PointF,Humidity,Sea Level PressureIn,VisibilityMPH,Wind Direction,Wind SpeedMPH,Gust SpeedMPH,PrecipitationIn,Events,Conditions,WindDirDegrees,DateUTC
12:54 AM,48.0,43.0,83,30.12,10.0,SSW,8.1,-,N/A,,Overcast,200,2012-10-10 04:54:00
1:54 AM,50.0,44.1,80,30.11,10.0,South,5.8,-,N/A,,Overcast,170,2012-10-10 05:54:00
2:54 AM,50.0,43.0,77,30.08,10.0,South,8.1,-,N/A,,Overcast,190,2012-10-10 06:54:00
3:54 AM,48.9,43.0,80,30.07,10.0,SSW,4.6,-,N/A,,Overcast,210,2012-10-10 07:54:00
4:54 AM,48.9,39.0,69,30.06,10.0,South,6.9,-,N/A,,Overcast,190,2012-10-10 08:54:00
5:46 AM,48.2,39.2,71,30.04,10.0,South,11.5,18.4,N/A,,Overcast,190,2012-10-10 09:46:00
5:54 AM,48.9,39.0,69,30.05,10.0,South,11.5,20.7,N/A,,Overcast,190,2012-10-10 09:54:00
6:54 AM,48.9,39.9,71,30.04,10.0,Variable,5.8,-,N/A,,Overcast,0,2012-10-10 10:54:00
7:11 AM,48.2,41.0,76,30.03,10.0,Variable,6.9,-,N/A,,Overcast,0,2012-10-10 11:11:00
7:54 AM,48.9,41.0,74,30.04,9.0,Calm,Calm,-,N/A,,Overcast,0,2012-10-10 11:54:00
8:54 AM,50.0,42.1,74,30.01,10.0,SSW,6.9,-,N/A,,Overcast,210,2012-10-10 12:54:00
9:54 AM,51.1,43.0,74,29.98,10.0,South,5.8,19.6,N/A,,Overcast,180,2012-10-10 13:54:00
10:54 AM,52.0,44.1,74,29.94,10.0,SSW,11.5,24.2,N/A,,Overcast,200,2012-10-10 14:54:00
11:54 AM,53.1,46.0,77,29.91,10.0,SSE,4.6,-,N/A,,Overcast,160,2012-10-10 15:54:00
12:54 PM,52.0,46.9,83,29.86,6.0,SSW,4.6,-,0.01,Rain,Light Rain,200,2012-10-10 16:54:00
1:54 PM,52.0,48.0,86,29.82,4.0,Calm,Calm,-,0.01,Rain,Light Rain,0,2012-10-10 17:54:00
2:28 PM,51.8,50.0,94,29.78,2.0,Calm,Calm,-,0.02,Rain,Rain,0,2012-10-10 18:28:00
2:40 PM,51.8,50.0,94,29.78,4.0,Calm,Calm,-,0.03,Rain,Light Rain,0,2012-10-10 18:40:00
2:54 PM,52.0,48.9,89,29.78,3.0,Calm,Calm,-,0.05,Rain,Rain,0,2012-10-10 18:54:00
2:58 PM,51.8,48.2,88,29.77,2.0,Calm,Calm,-,0.01,Rain,Rain,0,2012-10-10 18:58:00
3:10 PM,51.8,48.2,88,29.76,3.0,Calm,Calm,-,0.02,Rain,Light Rain,0,2012-10-10 19:10:00
3:54 PM,52.0,50.0,93,29.76,4.0,Calm,Calm,-,0.05,Rain,Light Rain,0,2012-10-10 19:54:00
4:10 PM,53.6,50.0,88,29.74,2.0,SSW,3.5,-,0.01,Rain,Light Rain,200,2012-10-10 20:10:00
4:24 PM,53.6,50.0,88,29.74,7.0,Variable,3.5,-,0.01,Rain,Light Rain,0,2012-10-10 20:24:00
4:54 PM,53.1,50.0,89,29.74,10.0,South,3.5,-,0.02,,Overcast,180,2012-10-10 20:54:00
5:32 PM,53.6,50.0,88,29.72,4.0,South,3.5,-,0.00,Rain,Light Rain,180,2012-10-10 21:32:00
5:54 PM,53.1,50.0,89,29.73,9.0,Variable,3.5,-,0.01,Rain,Light Rain,0,2012-10-10 21:54:00
6:10 PM,51.8,50.0,94,29.72,2.0,Calm,Calm,-,0.03,Rain,Light Rain,0,2012-10-10 22:10:00
6:18 PM,51.8,50.0,94,29.72,9.0,Calm,Calm,-,0.03,Rain,Light Rain,0,2012-10-10 22:18:00
6:54 PM,52.0,50.0,93,29.73,10.0,Calm,Calm,-,0.03,Rain,Light Rain,0,2012-10-10 22:54:00
7:54 PM,52.0,48.0,86,29.75,10.0,NW,13.8,19.6,0.00,,Mostly Cloudy,320,2012-10-10 23:54:00
8:54 PM,46.9,44.1,90,29.80,10.0,Calm,Calm,-,0.03,,Overcast,0,2012-10-11 00:54:00
9:54 PM,48.0,41.0,77,29.81,10.0,Calm,Calm,-,N/A,,Overcast,0,2012-10-11 01:54:00
10:54 PM,46.0,39.9,79,29.81,10.0,Calm,Calm,-,N/A,,Overcast,0,2012-10-11 02:54:00
11:54 PM,48.0,35.1,61,29.81,10.0,Variable,4.6,16.1,N/A,,Mostly Cloudy,0,2012-10-11 03:54:00